This is the latest recevied weather packets stored in our database for station/object WE0DX-1. If no packets are shown the sender has not sent any weather packets the latest 10 day(s).
| Time | Temp. | Humidity | Pressure | Rain* | Wind** | Luminosity | Snow |
|---|---|---|---|---|---|---|---|
| 1777958531 | 18.89° C | 38% | 1005.1 hPa | 0 mm | - | 0 W/m² | - |
| 1777958228 | 19.44° C | 37% | 1005 hPa | 0 mm | - | 0 W/m² | - |
| 1777957925 | 19.44° C | 38% | 1005.1 hPa | 0 mm | - | 0 W/m² | - |
| 1777957623 | 19.44° C | 38% | 1004.7 hPa | 0 mm | - | 0 W/m² | - |
| 1777957322 | 20° C | 38% | 1005 hPa | 0 mm | - | 0 W/m² | - |
| 1777957021 | 20° C | 38% | 1004.7 hPa | 0 mm | - | 0 W/m² | - |
| 1777956720 | 20° C | 39% | 1004.5 hPa | 0 mm | - | 0 W/m² | - |
| 1777956416 | 20° C | 38% | 1004.5 hPa | 0 mm | - | 0 W/m² | - |
| 1777956113 | 20.56° C | 37% | 1004.1 hPa | 0 mm | - | 0 W/m² | - |
| 1777955809 | 20.56° C | 38% | 1003.9 hPa | 0 mm | - | 0 W/m² | - |
| 1777955506 | 20.56° C | 37% | 1003.7 hPa | 0 mm | - | 0 W/m² | - |
| 1777955202 | 20.56° C | 38% | 1004 hPa | 0 mm | - | 0 W/m² | - |
| 1777954900 | 21.11° C | 37% | 1004 hPa | 0 mm | - | 0 W/m² | - |
| 1777954596 | 21.11° C | 37% | 1004.1 hPa | 0 mm | - | 0 W/m² | - |
| 1777954294 | 21.11° C | 37% | 1003.9 hPa | 0 mm | - | 0 W/m² | - |
| 1777953990 | 21.11° C | 37% | 1004.2 hPa | 0 mm | - | 0 W/m² | - |
| 1777953688 | 21.67° C | 37% | 1003.6 hPa | 0 mm | - | 0 W/m² | - |
| 1777953384 | 21.67° C | 38% | 1003.8 hPa | 0 mm | - | 0 W/m² | - |
| 1777953080 | 21.67° C | 43% | 1003.6 hPa | 0 mm | - | 0 W/m² | - |
| 1777952777 | 21.67° C | 44% | 1003.6 hPa | 0 mm | - | 0 W/m² | - |
| 1777952474 | 21.67° C | 49% | 1003.6 hPa | 0 mm | - | 0 W/m² | - |
| 1777952171 | 21.67° C | 51% | 1003.5 hPa | 0 mm | - | 0 W/m² | - |
| 1777951869 | 21.67° C | 53% | 1003.4 hPa | 0 mm | - | 0 W/m² | - |
| 1777951567 | 21.11° C | 56% | 1003.5 hPa | 0 mm | - | 0 W/m² | - |
| 1777951263 | 20.56° C | 60% | 1003.4 hPa | 0 mm | - | 0 W/m² | - |
* Rain latest hour (hover to see other rain measurements)
** Current wind speed in m/s (hover to see current wind gust speed)